Regional Weather Roundup
Issued by NWS Jackson, KY

Home | Current Version | Previous Version | Graphics & Text | Print | Product List | Glossary On
Versions: 1 2 3 4 5 6 7 8 9 10 11 12 13 14 15 16 17 18 19 20 21 22 23 24 25 26 27 28 29 30 31 32 33 34 35 36 37 38 39 40 41 42 43 44 45 46 47 48 49 50
000
ASUS43 KJKL 031110
RWRJKL

EAST KENTUCKY HOURLY WEATHER ROUNDUP
NATIONAL WEATHER SERVICE JACKSON KY
600 AM EST TUE MAR 03 2015

NOTE: "FAIR" INDICATES FEW OR NO CLOUDS BELOW 12,000 FEET WITH
NO SIGNIFICANT WEATHER AND/OR OBSTRUCTIONS TO VISIBILITY.

* THESE REPORTS ARE NOT UNDER NWS QUALITY CONTROL AND MAY NOT
  REPORT WEATHER SUCH AS PRECIPITATION AND FOG.

KYZ079-080-083-085-087-088-110-112-115-119-120-031200
...EASTERN KENTUCKY...

CITY           SKY/WX    TMP DP  RH WIND       PRES   REMARKS
JACKSON        CLOUDY    31  20  63 VRB3      30.15F
LONDON         CLOUDY    38  22  52 CALM      30.16R
SOMERSET*      CLOUDY    36  25  64 CALM      30.17R
MONTICELLO*    CLOUDY    40  30  67 CALM      30.18R
MIDDLESBORO*   CLOUDY    37  33  84 CALM      30.20R
HAZARD APT*    CLOUDY    32  27  80 CALM      30.15F
BLACK MTN*       N/A     39  37  93 SW9         N/A  WCI  33
PIKEVILLE APT* CLOUDY    32  23  69 CALM      30.14F
BIG SANDY*     CLOUDY    32  22  69 CALM      30.17S
MOREHEAD APT*  CLOUDY    30  19  64 VRB6      30.17F WCI  24
$$

KYZ035-036-041-042-044-050-067-078-099-031200
...CENTRAL KENTUCKY...

CITY           SKY/WX    TMP DP  RH WIND       PRES   REMARKS
MT STERLING*   CLOUDY    32  23  69 SE7       30.16F WCI  26
FLEMING/MASON* CLOUDY    28  21  74 E5        30.17F WCI  23
DANVILLE*      CLOUDY    32  27  80 S3        30.15S
RICHMOND*      CLOUDY    32  23  69 CALM      30.15R
LEXINGTON      CLOUDY    32  21  64 SE9       30.13F WCI  24
FRANKFORT      CLOUDY    31  21  66 SE6       30.12F WCI  25
$$

KYZ091>093-OHZ055-061-077-WVZ005-015-034-035-042-031200
...SOUTHERN OHIO/WEST VIRGINIA...

CITY           SKY/WX    TMP DP  RH WIND       PRES   REMARKS
COVINGTON      CLOUDY    28  17  63 E8        30.12F WCI  20
COLUMBUS       CLOUDY    25  15  66 E8        30.21F WCI  16
DAYTON         FRZ DRZL  26  17  68 SE16      30.10F WCI  14
WILMINGTON     CLOUDY    23  16  74 E10       30.14F WCI  12
HUNTINGTON     CLOUDY    29  21  72 CALM      30.19F
CHARLESTON     CLOUDY    30  22  72 CALM      30.20R
PINEVILLE*     CLOUDY    33  30  90 MISG      30.22F
BECKLEY        CLOUDY    34  16  47 SE14G24   30.18R WCI  25
BLUEFIELD      CLOUDY    38  18  44 SE12      30.19R WCI  30
$$

VAZ002-007-008-TNZ017-027-036-066-071-031200
...SOUTHWEST VIRGINIA/EAST TENNESSEE...

CITY           SKY/WX    TMP DP  RH WIND       PRES   REMARKS
WISE*          CLOUDY    37  28  70 SW7       30.16S WCI  32
JONESVILLE*    CLOUDY    34  32  93 CALM      30.21S
ABINGDON*      CLOUDY    40  26  56 E3        30.19R
BRISTOL        CLOUDY    39  29  67 CALM      30.19R
KNOXVILLE      CLOUDY    42  37  82 CALM      30.21R
OAK RIDGE      LGT RAIN  40  37  89 CALM      30.22R FOG
CROSSVILLE     CLOUDY    44  42  93 S7        30.15F FOG
NASHVILLE      CLOUDY    45  39  79 SE5       30.13S
$$

...KEY TO REMARKS...
VSB - VISIBILITY IN MILES
WCI - WIND CHILL INDEX
HX  - HEAT INDEX

$$


USA.gov is the U.S. government's official web portal to all federal, state and local government web resources and services.